Temperature
19 18 18 18 19 19 19 19 19 19 19 18 18 18 18 18 18 18 18 18 18 18 18 18 18 18 18 18 18 18 18 18 18 18 18 18 17 17 17 17 17 17 17
19 18 19 19 19 19 19 19 19 19 19 18 18 18 18 18 18 18 18 18 18 18 18 18 18 18 18 18 18 18 18 18 17 17 17 17 17 17 17 17 17 17 17
19 18 18 19 19 19 19 19 19 19 19 18 18 18 18 18 18 18 18 18 18 18 18 18 18 18 18 18 18 17 17 17 17 17 17 17 17 17 17 17 17 17 17
19 18 18 19 19 19 19 19 18 18 18 18 18 18 18 18 18 18 18 18 18 18 18 18 18 18 18 18 18 17 17 17 17 17 17 17 17 17 17 17 17 17 17
19 18 18 19 19 19 18 18 18 18 18 18 18 18 18 18 18 18 18 18 18 18 18 18 18 18 18 18 18 18 17 17 17 17 17 17 17 17 17 17 17 17 17
19 19 18 19 19 19 18 18 18 18 18 18 18 18 18 18 18 18 18 18 18 18 18 18 18 18 18 18 18 18 17 17 17 17 17 16 17 17 17 17 17 17 17
20 19 18 19 18 18 18 18 18 18 18 18 18 18 18 18 18 18 18 18 18 18 18 18 18 18 18 18 18 17 17 17 17 17 17 16 17 17 17 17 17 17 17
20 19 18 19 18 18 18 18 18 18 18 18 18 18 18 18 18 18 18 18 18 18 18 18 18 17 17 17 17 17 17 17 17 17 17 17 17 17 17 17 17 17 17
20 19 18 18 18 18 18 18 18 18 18 18 18 18 18 18 18 18 17 17 17 17 17 18 18 17 17 17 17 17 17 17 17 17 17 16 17 17 17 17 17 17 17
19 19 18 18 18 18 18 18 18 18 18 18 18 18 18 18 18 18 17 17 17 17 17 17 17 17 17 17 17 17 17 17 17 17 17 17 17 17 17 17 17 17 17
18 19 19 19 18 18 18 18 18 18 18 18 18 18 17 17 17 17 17 17 17 17 17 17 17 17 17 17 17 17 17 17 18 17 17 17 17 17 17 17 17 16 16
19 19 18 18 18 18 18 18 17 17 17 17 17 17 17 17 17 17 17 17 17 17 17 17 17 17 17 17 17 17 17 17 17 17 17 17 17 17 17 17 17 16 16
20 19 19 18 18 18 18 18 18 18 17 17 17 17 17 17 17 17 17 17 17 17 17 17 17 17 17 17 17 17 17 18 18 17 17 17 17 17 17 17 17 17 16
20 19 19 19 18 18 18 18 18 18 18 17 17 17 17 17 17 17 17 17 17 17 17 17 17 17 17 17 17 17 17 17 18 17 17 17 17 17 17 17 17 17 17
20 19 19 19 18 18 18 18 18 18 18 18 17 17 17 17 17 17 17 17 17 17 17 17 17 17 17 17 17 17 17 17 17 17 17 17 17 17 17 17 17 17 17
20 19 19 19 19 19 18 18 18 18 18 18 17 17 17 17 17 17 17 17 17 17 17 17 17 17 17 17 17 17 17 17 17 16 17 17 17 17 17 17 17 17 17
20 20 19 19 19 19 18 18 18 18 18 18 17 17 17 17 17 17 17 17 17 17 17 17 17 17 17 17 17 17 17 17 17 16 17 17 17 17 17 17 17 17 16
20 20 20 19 19 19 19 18 18 18 18 18 17 17 17 17 17 17 17 17 17 17 17 17 17 17 17 17 17 17 17 17 17 16 17 17 17 17 17 17 17 17 16
20 20 20 19 19 19 19 18 18 18 18 18 18 18 17 17 17 17 17 17 17 17 17 17 17 17 17 17 17 17 17 17 17 17 17 17 17 16 17 17 17 17 17
20 20 20 19 19 19 18 18 18 18 18 18 18 18 17 17 17 17 17 17 17 17 17 17 17 17 17 17 18 18 17 17 17 17 17 17 17 17 17 16 17 17 17
21 20 20 20 19 19 19 18 18 18 18 18 18 17 17 17 17 17 17 17 17 17 17 17 17 17 17 17 17 18 18 18 17 17 17 17 17 17 17 17 17 16 16
21 21 20 20 19 19 19 18 18 18 18 18 18 18 17 17 17 17 17 17 17 17 17 17 17 17 17 17 17 18 18 18 18 18 17 17 17 17 17 17 17 16 16
21 21 20 20 20 19 19 18 18 18 18 18 18 18 18 18 17 17 17 17 17 17 17 17 17 17 17 17 17 18 18 19 18 18 17 17 17 17 17 17 17 17 16
21 21 20 20 20 19 19 18 18 18 18 18 18 18 18 18 18 17 17 17 17 17 17 17 17 17 17 17 17 17 17 18 18 18 18 18 17 17 17 17 17 17 16
21 21 20 20 20 20 19 19 19 18 18 18 18 18 18 18 17 17 18 17 18 17 17 17 17 17 17 17 17 17 17 17 17 17 17 17 17 17 17 17 17 17 16
21 21 21 21 20 20 20 19 19 19 18 18 18 18 17 17 17 17 17 17 17 17 17 17 17 17 17 17 17 17 17 17 17 17 17 17 17 17 17 16 16 16 16
Wind_Speed
9 11 12 11 11 12 12 13 13 13 14 14 14 14 13 13 13 13 13 13 13 13 13 13 13 13 13 12 12 12 13 13 13 13 14 15 15 15 14 14 12 13 15
12 13 12 11 11 12 12 12 13 13 13 13 14 13 13 13 13 13 12 13 13 13 12 12 12 12 12 12 12 12 12 12 13 13 14 14 14 13 12 10 9 13 14
12 14 13 11 12 12 12 12 13 13 13 13 13 13 12 12 12 12 12 12 13 12 12 12 12 12 12 11 11 12 12 12 12 12 11 11 13 13 12 11 13 14 14
12 13 13 13 11 12 12 12 12 12 12 12 12 12 12 12 11 12 12 12 12 12 11 12 12 11 11 11 11 11 11 11 11 10 9 10 12 13 11 11 12 13 13
12 12 14 12 11 11 11 12 12 11 11 11 11 11 11 11 11 11 11 11 11 11 11 11 11 11 11 11 11 11 11 11 9 7 8 9 11 13 11 11 12 13 12
12 12 15 11 11 11 11 11 11 11 10 10 10 10 10 10 10 11 10 11 11 11 11 11 11 11 11 11 11 11 11 9 8 7 8 9 10 12 11 11 12 12 12
12 12 15 12 11 11 10 10 10 10 9 9 9 9 9 10 10 10 10 11 11 11 10 10 10 10 10 10 10 10 9 6 6 8 8 8 11 12 11 11 11 11 11
11 12 14 12 10 10 9 9 9 9 9 8 8 9 9 9 9 9 10 10 10 11 10 10 9 10 10 9 9 9 7 4 7 7 8 10 12 11 10 10 11 11 11
10 11 11 12 12 10 9 9 8 8 8 8 8 8 8 9 9 9 9 10 10 10 10 10 10 10 9 9 9 8 6 2 5 6 7 9 11 10 10 10 10 10 11
8 9 9 8 9 10 11 9 8 8 8 8 9 9 9 9 9 9 9 10 9 10 10 10 10 9 8 9 9 8 6 5 5 7 7 10 11 9 9 9 9 9 10
8 7 8 8 8 7 8 10 9 9 8 8 9 9 8 8 9 8 10 9 9 9 9 9 9 8 8 10 9 8 7 4 5 5 7 11 9 9 9 9 8 9 9
10 9 7 6 7 7 6 7 6 6 7 5 6 7 6 6 6 8 10 8 8 9 9 8 8 8 7 8 9 9 4 4 4 5 8 10 8 9 8 8 8 9 9
10 9 8 7 6 5 5 4 4 4 5 5 5 5 5 5 6 7 7 8 7 8 7 9 8 5 4 4 4 4 4 3 3 4 9 9 7 8 8 8 8 8 9
9 9 8 7 6 4 4 4 4 3 4 4 6 5 5 4 4 4 4 5 5 5 4 4 4 4 4 4 3 3 3 1 2 4 8 8 7 7 8 8 9 9 9
9 9 8 8 6 5 4 3 3 3 3 5 4 5 4 4 3 4 3 3 3 4 5 4 4 4 4 4 3 4 3 2 2 2 6 8 7 7 7 8 9 9 9
9 9 8 8 8 6 5 4 3 3 3 3 4 5 4 4 4 4 4 3 3 3 3 3 4 4 3 3 3 3 3 3 3 3 4 8 9 8 8 8 9 10 10
10 9 9 9 8 7 6 5 4 4 4 3 3 5 5 5 5 4 3 3 3 3 3 3 3 3 4 4 3 3 3 2 2 3 3 4 7 10 9 8 9 10 11
10 10 9 8 8 8 6 5 4 4 3 3 3 4 5 4 5 4 3 3 3 3 4 3 3 3 3 3 3 3 2 3 3 4 4 4 4 5 9 10 9 10 11
10 10 9 8 8 8 6 5 5 4 4 4 4 4 5 6 5 5 3 3 4 4 3 4 3 3 3 3 3 3 3 3 3 4 4 4 4 4 5 9 11 11 11
10 10 9 10 9 8 6 5 4 4 4 4 4 4 5 6 6 5 5 4 5 4 3 3 2 3 3 3 4 2 3 3 4 4 5 4 5 6 5 5 8 10 12
10 11 11 11 10 8 6 6 5 5 5 4 5 5 6 6 6 5 5 4 5 4 4 5 4 5 5 3 3 3 4 5 4 4 4 4 4 5 5 5 6 5 7
12 12 12 12 11 10 7 5 4 3 4 4 4 4 6 6 6 6 5 5 5 4 5 5 4 4 4 4 4 4 4 4 4 4 4 4 4 4 4 6 5 5 6
12 12 11 12 11 10 9 6 5 4 4 5 5 5 6 6 7 6 5 6 5 6 5 5 6 6 5 5 5 4 3 3 2 2 3 3 3 3 3 3 4 5 6
12 11 11 11 11 11 10 8 8 6 6 5 5 4 5 6 6 7 6 6 6 6 4 6 6 5 6 6 5 5 5 4 3 2 3 3 3 3 3 3 3 3 4
11 10 10 11 11 11 10 9 9 8 6 5 5 5 5 5 6 6 6 5 5 6 5 5 4 6 6 7 6 5 5 5 6 5 4 3 3 2 2 2 2 2 2
10 10 10 11 10 10 11 10 10 9 7 6 5 5 5 4 4 5 5 4 5 5 5 5 5 7 6 6 6 5 5 5 5 5 5 5 4 3 1 1 1 1 1
Wind_Direction
128 122 118 118 114 110 108 110 113 114 116 116 116 114 113 111 110 109 109 109 109 110 111 112 113 113 113 113 114 115 116 116 117 118 118 119 121 123 124 126 131 116 116
127 123 121 120 116 111 108 109 113 113 115 116 118 118 117 114 114 113 112 110 109 109 110 112 115 116 114 114 117 119 119 120 119 119 122 123 123 123 126 127 113 116 123
128 126 129 122 118 114 111 110 112 112 113 115 118 119 117 115 113 113 112 111 110 110 112 114 116 116 115 116 119 120 120 120 123 127 137 130 124 124 123 119 114 122 124
129 129 124 122 121 118 115 113 113 111 110 111 113 117 116 115 113 112 112 113 114 114 113 115 117 116 117 117 118 120 122 125 130 148 141 126 126 124 127 127 125 127 126
125 124 120 127 124 121 117 114 113 113 111 110 111 114 117 116 116 113 112 113 115 117 116 117 117 116 115 114 116 120 124 129 145 156 119 118 119 127 132 131 129 129 127
130 131 124 130 126 123 119 117 115 115 113 113 113 114 116 117 116 115 113 112 114 116 119 119 119 118 116 114 116 121 125 139 163 124 118 120 120 129 131 130 130 130 131
132 126 126 129 127 125 122 121 120 117 115 116 117 117 117 118 117 115 113 112 113 115 118 119 118 120 119 117 118 122 126 148 130 120 120 116 116 128 132 133 135 136 135
132 129 125 130 129 128 126 126 125 121 119 119 120 117 116 117 117 117 114 112 112 114 118 121 121 119 118 118 121 124 131 175 133 120 119 114 115 128 132 133 134 137 135
136 132 136 142 141 138 131 128 125 122 123 121 120 115 114 117 118 118 116 116 117 119 120 120 118 117 118 122 127 130 138 208 128 121 118 113 122 132 135 139 139 141 139
140 137 138 142 139 147 141 134 128 124 123 124 124 127 126 126 125 129 130 119 120 122 122 121 118 117 120 125 130 135 152 203 128 127 117 119 132 140 140 144 146 145 145
151 150 148 143 147 148 139 136 143 141 137 142 134 136 153 143 133 138 110 117 124 124 124 124 122 122 131 132 136 150 182 163 119 111 108 118 140 148 147 147 147 148 148
161 160 153 154 155 149 135 137 146 150 143 148 132 140 139 123 121 115 118 124 125 128 132 130 138 159 175 145 150 179 167 136 129 123 115 129 146 152 154 155 155 154 155
161 161 163 161 160 148 142 144 141 140 139 141 131 133 131 138 136 132 138 141 141 152 146 146 170 159 140 127 149 148 126 136 126 124 121 140 158 164 165 167 166 167 166
164 167 166 160 163 159 150 148 156 159 158 151 145 158 150 144 140 133 141 143 151 145 138 152 143 137 140 149 150 130 139 151 121 111 123 143 163 175 175 175 178 180 181
173 172 172 170 164 165 171 190 170 173 178 157 153 159 166 159 148 146 142 154 158 144 156 162 147 143 159 162 158 147 141 132 143 140 133 149 167 181 185 184 187 191 193
180 177 176 179 174 177 186 192 188 183 189 181 171 165 177 162 156 164 162 169 162 165 152 158 152 161 173 158 163 156 177 166 160 178 159 160 174 188 193 193 195 196 199
182 181 181 185 183 187 193 195 193 197 190 190 173 172 184 177 168 181 167 182 176 173 170 189 174 177 181 177 177 179 189 192 181 194 190 183 176 184 192 201 204 203 205
186 186 189 192 186 190 196 201 198 199 194 199 195 185 189 185 188 199 186 185 182 200 198 188 207 201 195 192 188 200 191 187 201 208 210 206 200 189 185 194 206 210 212
192 190 191 197 193 194 196 207 210 197 204 210 207 203 194 201 199 209 206 179 200 208 213 219 188 217 202 204 208 207 216 210 207 214 216 219 211 218 200 180 198 212 217
193 192 192 195 192 190 193 201 210 203 200 214 216 211 207 206 205 216 212 208 219 214 219 225 220 229 228 222 237 220 235 227 222 220 223 213 205 214 219 206 198 202 211
192 193 193 194 187 189 193 202 203 203 200 207 214 206 211 214 208 222 236 209 226 221 227 226 226 223 226 224 241 236 231 229 223 220 228 230 211 212 218 221 228 222 207
193 195 193 192 191 196 194 200 209 210 211 209 220 210 217 214 220 220 226 230 225 225 225 228 226 243 242 222 241 249 241 221 210 218 218 221 231 219 220 220 222 224 240
194 195 194 191 191 197 194 196 197 199 216 215 216 212 218 217 222 235 229 238 235 235 227 228 232 234 240 237 239 251 259 250 237 202 210 222 228 237 238 230 227 228 234
194 191 189 189 191 192 192 202 207 213 220 219 222 218 217 222 227 228 233 236 240 246 239 238 233 239 242 244 233 241 258 279 265 241 223 207 210 230 243 244 237 232 238
188 186 185 186 190 191 196 204 212 222 225 221 217 214 226 223 227 228 228 234 235 244 245 254 253 247 241 245 242 235 239 241 245 251 252 245 235 238 230 239 252 258 237
183 183 182 183 189 191 197 206 214 220 219 221 221 221 224 223 224 225 229 233 239 246 241 241 245 241 246 246 250 245 242 244 242 246 251 250 249 250 232 251 261 272 257
Height
1540 1540 1538 1539 1540 1540 1541 1541 1542 1543 1543 1544 1545 1546 1546 1547 1548 1549 1550 1551 1552 1553 1553 1554 1555 1556 1557 1558 1559 1559 1560 1561 1562 1562 1563 1564 1565 1566 1567 1568 1569 1570 1570
1541 1541 1540 1541 1542 1543 1543 1544 1545 1545 1546 1547 1547 1548 1549 1549 1550 1551 1552 1553 1554 1554 1555 1556 1557 1558 1559 1560 1560 1561 1562 1563 1563 1564 1565 1566 1567 1568 1569 1570 1571 1572 1572
1542 1543 1542 1543 1544 1545 1546 1546 1547 1548 1548 1549 1550 1550 1551 1551 1552 1553 1554 1555 1556 1556 1557 1558 1559 1560 1560 1561 1562 1563 1564 1564 1565 1566 1567 1569 1569 1570 1571 1572 1573 1573 1574
1544 1545 1545 1545 1546 1547 1548 1549 1549 1550 1550 1551 1552 1552 1553 1554 1554 1555 1556 1557 1557 1558 1559 1560 1560 1561 1562 1563 1564 1564 1565 1566 1567 1568 1570 1571 1571 1571 1572 1574 1574 1575 1576
1546 1547 1546 1547 1548 1549 1550 1550 1551 1552 1552 1553 1554 1554 1555 1556 1556 1557 1558 1558 1559 1560 1561 1561 1562 1563 1564 1564 1565 1566 1567 1568 1569 1571 1572 1572 1573 1573 1574 1575 1576 1577 1578
1548 1549 1547 1548 1550 1550 1551 1552 1553 1554 1554 1555 1555 1556 1557 1557 1558 1559 1559 1560 1561 1561 1562 1563 1564 1565 1565 1566 1567 1568 1569 1569 1571 1573 1573 1574 1574 1574 1575 1576 1577 1578 1579
1550 1551 1550 1550 1551 1552 1553 1554 1555 1555 1556 1556 1557 1558 1558 1559 1559 1560 1561 1562 1562 1563 1564 1565 1566 1566 1567 1568 1569 1569 1570 1571 1574 1575 1575 1575 1575 1575 1576 1578 1579 1580 1581
1551 1552 1551 1552 1553 1554 1555 1555 1556 1557 1557 1558 1558 1559 1560 1560 1561 1562 1563 1563 1564 1565 1565 1566 1567 1568 1569 1570 1570 1571 1572 1573 1576 1577 1577 1577 1576 1577 1578 1579 1580 1581 1582
1553 1554 1554 1555 1554 1555 1556 1557 1558 1558 1559 1559 1560 1560 1561 1562 1563 1563 1564 1565 1565 1566 1567 1568 1569 1569 1570 1571 1572 1573 1573 1574 1578 1578 1579 1578 1578 1578 1579 1580 1581 1582 1583
1553 1555 1555 1557 1558 1558 1558 1558 1559 1559 1560 1560 1561 1561 1562 1563 1564 1565 1566 1566 1567 1568 1568 1569 1570 1571 1572 1573 1574 1574 1575 1576 1580 1580 1580 1579 1579 1579 1580 1581 1582 1583 1584
1554 1555 1557 1558 1559 1560 1561 1560 1560 1561 1561 1562 1562 1563 1564 1565 1566 1567 1567 1568 1568 1569 1570 1571 1572 1573 1573 1574 1575 1576 1577 1580 1580 1581 1581 1580 1580 1581 1581 1582 1583 1584 1585
1554 1556 1557 1558 1559 1561 1562 1562 1563 1563 1563 1564 1564 1564 1565 1566 1567 1568 1568 1569 1570 1571 1571 1572 1573 1574 1575 1577 1577 1577 1580 1581 1581 1582 1581 1580 1581 1581 1582 1583 1584 1585 1585
1554 1556 1557 1558 1560 1562 1562 1563 1564 1564 1564 1565 1565 1565 1566 1567 1568 1569 1570 1571 1571 1572 1574 1574 1575 1577 1578 1578 1579 1580 1581 1582 1582 1583 1581 1581 1581 1582 1582 1583 1584 1585 1586
1555 1556 1557 1558 1559 1560 1562 1563 1563 1565 1565 1566 1565 1566 1567 1568 1569 1570 1571 1572 1573 1574 1574 1576 1576 1577 1578 1578 1579 1580 1581 1582 1582 1583 1581 1581 1581 1582 1582 1583 1584 1585 1586
1554 1556 1557 1558 1559 1560 1561 1562 1564 1564 1566 1566 1566 1567 1568 1569 1570 1571 1571 1572 1574 1575 1575 1576 1577 1577 1578 1579 1580 1580 1581 1581 1582 1582 1582 1581 1581 1582 1582 1583 1583 1584 1585
1554 1555 1557 1558 1559 1560 1561 1562 1564 1565 1565 1567 1567 1568 1568 1570 1570 1571 1572 1573 1574 1575 1576 1576 1577 1577 1578 1579 1580 1580 1581 1581 1581 1581 1582 1581 1581 1581 1582 1582 1583 1583 1584
1553 1554 1556 1557 1558 1559 1561 1562 1564 1565 1566 1567 1567 1567 1568 1569 1570 1571 1572 1573 1574 1575 1575 1576 1577 1578 1578 1579 1579 1580 1580 1580 1581 1581 1581 1582 1581 1581 1581 1581 1582 1582 1583
1552 1554 1555 1557 1558 1559 1561 1562 1564 1565 1565 1566 1567 1568 1568 1569 1570 1570 1572 1573 1573 1575 1576 1576 1577 1578 1578 1578 1579 1579 1579 1579 1579 1580 1580 1580 1581 1581 1580 1580 1580 1581 1582
1550 1552 1554 1556 1557 1559 1560 1561 1563 1563 1564 1565 1566 1567 1567 1568 1569 1570 1571 1572 1573 1574 1575 1576 1576 1577 1577 1577 1578 1578 1578 1578 1578 1579 1579 1579 1579 1579 1580 1579 1579 1579 1580
1548 1550 1552 1554 1555 1557 1558 1559 1561 1562 1562 1564 1565 1565 1566 1567 1568 1569 1570 1571 1572 1573 1573 1574 1574 1574 1575 1576 1577 1577 1577 1577 1577 1577 1577 1577 1577 1577 1578 1578 1578 1578 1577
1546 1548 1549 1551 1553 1555 1556 1558 1559 1561 1562 1563 1564 1564 1565 1566 1567 1568 1570 1570 1570 1572 1572 1573 1573 1573 1574 1575 1575 1575 1575 1575 1575 1575 1575 1575 1576 1576 1576 1576 1576 1576 1576
1543 1545 1547 1549 1551 1553 1554 1556 1557 1559 1561 1562 1562 1563 1564 1565 1566 1568 1568 1568 1569 1569 1570 1570 1570 1571 1573 1573 1574 1574 1573 1574 1573 1573 1573 1573 1573 1574 1574 1574 1574 1573 1574
1541 1543 1545 1547 1549 1551 1553 1555 1556 1557 1559 1560 1561 1562 1562 1563 1564 1565 1566 1567 1567 1568 1568 1568 1568 1569 1570 1571 1571 1572 1572 1571 1571 1571 1570 1570 1570 1571 1571 1571 1571 1571 1571
1539 1541 1542 1544 1546 1548 1550 1552 1554 1556 1557 1558 1559 1560 1561 1562 1562 1563 1564 1564 1564 1565 1566 1566 1567 1567 1567 1568 1569 1568 1569 1569 1569 1569 1569 1568 1568 1568 1568 1569 1569 1568 1568
1537 1539 1540 1542 1544 1546 1548 1550 1552 1554 1555 1557 1557 1558 1559 1560 1560 1561 1561 1562 1562 1563 1563 1563 1564 1564 1565 1565 1566 1566 1566 1566 1566 1566 1566 1566 1566 1566 1565 1565 1566 1566 1566
1535 1537 1538 1540 1542 1543 1545 1547 1549 1551 1552 1554 1555 1556 1557 1558 1558 1559 1559 1559 1559 1560 1560 1560 1560 1561 1561 1561 1562 1562 1563 1563 1563 1563 1563 1563 1563 1563 1563 1562 1563 1563 1563